Augusta Bush, GA

11:58 PM EDT on June 28, 2017 (GMT -0400)
Augusta Regional At Bush

Weather History for KAGS - January, 2012

Change the Weather History Date:

Friday, January 6, 2012

  Actual Average Record
Temperature  
Mean Temperature 47 °F 45 °F  
Max Temperature 68 °F 57 °F 78 °F (1888)
Min Temperature 26 °F 33 °F 11 °F (1969)
Degree Days  
Heating Degree Days 18 20  
Month to date heating degree days 134 120  
Since 1 July heating degree days 1010 1095  
Cooling Degree Days 0 0  
Month to date cooling degree days 0 0  
Year to date cooling degree days 0 0  
Moisture  
Dew Point 31 °F    
Average Humidity 62    
Maximum Humidity 100    
Minimum Humidity 24    
Precipitation  
Precipitation 0.00 in 0.12 in 2.66 in (1995)
Month to date precipitation T 0.72  
Year to date precipitation T 0.72  
Sea Level Pressure  
Sea Level Pressure 30.11 in    
Wind  
Wind Speed 3 mph (SW)    
Max Wind Speed 14 mph    
Max Gust Speed 22 mph    
Visibility 9 miles    
Events      
T = Trace of Precipitation, MM = Missing Value Source: NWS Daily Summary

Daily Weather History Graph

Daily Weather History Graph

Search for Another Location

Airport or City:

Trip Planner

Search our weather history database for the weather conditions in past years. The results will help you decide how hot, cold, wet, or windy it might be!

Date:

Astronomy

Jan. 06, 2012 Rise Set
Actual Time 7:32 AM EST 5:34 PM EST
Civil Twilight 7:05 AM EST 6:02 PM EST
Nautical Twilight 6:34 AM EST 6:32 PM EST
Astronomical Twilight 6:04 AM EST 7:03 PM EST
Moon 3:25 PM EST (1/6) 5:10 AM EST (1/6)
Length of Visible Light 10h 57m
Length of Day
10h 02m
Waxing Gibbous, 93% of the Moon is Illuminated
Jan 6
Waxing Gibbous
Jan 9
Full
Jan 16
Last Quarter
Jan 23
New
Jan 30
First Quarter

Hourly Weather History & Observations

Time (EST) Temp. Windchill Dew Point Humidity Pressure Visibility Wind Dir Wind Speed Gust Speed Precip Events Conditions
12:53 AM 32.0 °F - 28.0 °F 85% 30.14 in 10.0 mi Calm Calm - N/A   Clear
1:53 AM 30.0 °F - 28.0 °F 92% 30.14 in 10.0 mi Calm Calm - N/A   Clear
2:53 AM 28.4 °F - 26.6 °F 93% 30.13 in 10.0 mi Calm Calm - N/A   Clear
3:53 AM 28.9 °F - 27.0 °F 92% 30.13 in 9.0 mi Calm Calm - N/A   Clear
4:53 AM 28.0 °F - 26.1 °F 92% 30.12 in 9.0 mi Calm Calm - N/A   Clear
5:53 AM 27.0 °F - 25.0 °F 92% 30.13 in 6.0 mi Calm Calm - N/A   Clear
6:53 AM 26.1 °F - 24.1 °F 92% 30.14 in 6.0 mi Calm Calm - N/A   Clear
7:53 AM 27.0 °F - 26.1 °F 96% 30.16 in 5.0 mi Calm Calm - N/A   Clear
8:53 AM 35.1 °F - 33.1 °F 92% 30.17 in 4.0 mi Calm Calm - N/A   Clear
9:53 AM 48.0 °F - 35.1 °F 61% 30.18 in 6.0 mi SW 3.5 mph - N/A   Haze
10:53 AM 55.4 °F - 35.6 °F 47% 30.16 in 10.0 mi Calm Calm - N/A   Clear
11:53 AM 62.1 °F - 35.1 °F 37% 30.13 in 10.0 mi WSW 6.9 mph - N/A   Clear
12:53 PM 64.0 °F - 30.9 °F 29% 30.10 in 10.0 mi WSW 11.5 mph - N/A   Clear
1:53 PM 66.9 °F - 30.9 °F 26% 30.07 in 10.0 mi SW 10.4 mph - N/A   Clear
2:53 PM 68.0 °F - 30.9 °F 25% 30.06 in 10.0 mi WSW 9.2 mph - N/A   Clear
3:53 PM 68.0 °F - 30.9 °F 25% 30.06 in 10.0 mi WSW 6.9 mph - N/A   Clear
4:53 PM 62.1 °F - 33.1 °F 34% 30.06 in 10.0 mi SW 5.8 mph - N/A   Clear
5:53 PM 54.0 °F - 34.0 °F 47% 30.07 in 10.0 mi SSW 3.5 mph - N/A   Clear
6:53 PM 46.9 °F - 35.1 °F 63% 30.09 in 10.0 mi WSW 3.5 mph - N/A   Clear
7:53 PM 44.1 °F - 33.1 °F 65% 30.09 in 10.0 mi Calm Calm - N/A   Clear
8:53 PM 41.0 °F 39.0 °F 33.1 °F 73% 30.09 in 10.0 mi SW 3.5 mph - N/A   Clear
9:53 PM 39.9 °F - 35.1 °F 83% 30.08 in 10.0 mi Calm Calm - N/A   Clear
10:53 PM 39.9 °F - 36.0 °F 86% 30.07 in 10.0 mi Calm Calm - N/A   Clear
11:53 PM 39.9 °F - 34.0 °F 79% 30.07 in 10.0 mi Calm Calm - N/A   Clear